Regional Weather Roundup
Issued by NWS

Home | Current Version | Previous Version | Text Only | Print | Product List | Glossary Off
Versions: 1 2 3 4 5 6 7 8 9 10 11 12 13 14 15 16 17 18 19 20 21 22 23 24 25 26 27 28 29 30 31 32 33 34 35 36 37 38 39 40 41 42 43 44 45 46 47 48 49 50

662
ASUS43 KBIS 061702
RWRND

NORTH DAKOTA REGIONAL WEATHER ROUNDUP
NATIONAL WEATHER SERVICE BISMARCK ND
1100 AM CST SAT FEB 06 2016

NOTE: "FAIR" INDICATES FEW OR NO CLOUDS BELOW 12,000 FEET WITH NO
SIGNIFICANT WEATHER AND/OR OBSTRUCTIONS TO VISIBILITY.


NDZ001>003-009>011-017-061800-
NORTHWEST NORTH DAKOTA

CITY           SKY/WX    TMP DP  RH WIND       PRES   REMARKS
WILLISTON      CLOUDY    41  28  60 SW8       29.70F
MINOT          CLOUDY    47  26  44 SW15G23   29.66S
MINOT AFB      CLOUDY    45  29  54 W15G21    29.64F
$$

NDZ018>021-031>035-040>046-061800-
SOUTHWEST NORTH DAKOTA

CITY           SKY/WX    TMP DP  RH WIND       PRES   REMARKS
BISMARCK       CLOUDY    44  26  49 SW7       29.79F
DICKINSON      MOSUNNY   42  21  43 W17       29.78F
GARRISON         N/A     41  26  55 W20G26    29.71R
HETTINGER ARPT CLOUDY    41  21  44 W14       29.85F
$$

NDZ004>008-012>016-024-026-027-054-061800-
NORTHEAST NORTH DAKOTA

CITY           SKY/WX    TMP DP  RH WIND       PRES   REMARKS
GRAND FORKS    CLOUDY    30  24  78 S14       29.75F WCI  19
GRND FRKS AFB  CLOUDY    30  25  80 S10       29.74F
DEVILS LAKE    SUNNY     36  27  69 SW13      29.70F
$$

NDZ022-023-025-028>030-036>039-047>053-061800-
SOUTHEAST NORTH DAKOTA

CITY           SKY/WX    TMP DP  RH WIND       PRES   REMARKS
FARGO          MOSUNNY   32  25  75 S13       29.81F
JAMESTOWN      MOSUNNY   39  26  59 SW16      29.76F
$$





USA.gov is the U.S. government's official web portal to all federal, state and local government web resources and services.